Total_Precipitation_Accumulation
0.58 0.66 0.55 0.38 0.31 0.31 0.35 0.34 0.36 0.44 0.54 0.61 0.58 0.52 0.49 0.55 0.66 0.80 0.88 0.96 1.04 1.08 1.15 1.17 1.16 1.19 1.23 1.18 1.24 1.33 1.45 1.54 1.39 1.32 1.22 1.16 1.07 0.95 0.79 0.59 0.46 0.34 0.31
1.03 1.11 0.96 0.58 0.36 0.29 0.24 0.23 0.29 0.41 0.52 0.57 0.54 0.49 0.47 0.54 0.66 0.80 0.96 1.16 1.28 1.24 1.16 1.07 1.00 1.05 1.11 1.14 1.22 1.23 1.26 1.41 1.37 1.33 1.33 1.32 1.18 0.99 0.87 0.70 0.51 0.41 0.41
0.93 1.04 0.84 0.46 0.26 0.19 0.17 0.22 0.36 0.47 0.51 0.52 0.53 0.58 0.68 0.77 0.87 0.99 1.05 1.19 1.23 1.15 1.09 1.02 0.95 0.94 0.96 1.03 1.13 1.19 1.16 1.21 1.29 1.28 1.28 1.30 1.26 1.05 0.86 0.74 0.60 0.60 0.59
0.53 0.68 0.55 0.32 0.21 0.17 0.17 0.23 0.29 0.32 0.37 0.47 0.59 0.76 0.88 0.93 0.96 1.03 1.01 0.98 0.98 0.90 0.83 0.78 0.83 0.93 0.97 0.91 0.91 0.94 0.99 1.05 1.09 1.14 1.20 1.21 1.20 1.14 0.89 0.80 0.77 0.71 0.66
0.43 0.54 0.43 0.27 0.19 0.13 0.11 0.13 0.18 0.26 0.32 0.44 0.61 0.70 0.70 0.72 0.79 0.87 0.87 0.84 0.79 0.74 0.65 0.51 0.51 0.69 0.83 0.84 0.79 0.77 0.77 0.83 0.87 0.94 1.02 1.07 1.04 1.06 0.92 0.75 0.71 0.76 0.73
0.37 0.49 0.43 0.33 0.21 0.13 0.11 0.13 0.19 0.26 0.31 0.39 0.48 0.49 0.45 0.36 0.35 0.39 0.47 0.55 0.59 0.58 0.50 0.44 0.43 0.47 0.51 0.54 0.60 0.63 0.66 0.68 0.73 0.82 0.93 0.97 0.92 0.87 0.88 0.85 0.78 0.79 0.88
0.37 0.46 0.47 0.42 0.31 0.24 0.16 0.17 0.23 0.28 0.32 0.38 0.37 0.38 0.40 0.38 0.26 0.20 0.21 0.32 0.39 0.41 0.40 0.41 0.34 0.31 0.32 0.29 0.30 0.32 0.37 0.45 0.53 0.64 0.79 0.86 0.92 0.83 0.83 0.86 0.86 0.97 1.10
0.31 0.44 0.50 0.48 0.45 0.42 0.33 0.31 0.33 0.37 0.40 0.44 0.40 0.40 0.43 0.41 0.29 0.21 0.17 0.19 0.30 0.34 0.34 0.32 0.30 0.32 0.31 0.27 0.22 0.21 0.21 0.24 0.30 0.37 0.52 0.69 0.82 0.90 0.84 0.79 0.79 0.85 0.91
0.26 0.41 0.50 0.52 0.51 0.49 0.47 0.46 0.49 0.53 0.49 0.47 0.45 0.46 0.48 0.49 0.35 0.22 0.18 0.24 0.35 0.35 0.35 0.33 0.30 0.29 0.28 0.24 0.24 0.22 0.21 0.22 0.23 0.27 0.35 0.49 0.63 0.69 0.77 0.78 0.70 0.62 0.62
0.28 0.39 0.54 0.64 0.69 0.68 0.65 0.60 0.60 0.69 0.63 0.56 0.51 0.53 0.57 0.62 0.53 0.31 0.22 0.32 0.48 0.50 0.50 0.45 0.38 0.33 0.28 0.19 0.20 0.23 0.19 0.19 0.20 0.20 0.23 0.30 0.39 0.49 0.52 0.54 0.60 0.55 0.47
0.31 0.37 0.51 0.70 0.81 0.81 0.83 0.78 0.75 0.76 0.78 0.77 0.69 0.68 0.70 0.74 0.67 0.39 0.29 0.41 0.56 0.65 0.65 0.59 0.49 0.38 0.28 0.22 0.20 0.22 0.20 0.20 0.23 0.25 0.26 0.29 0.36 0.45 0.45 0.41 0.44 0.48 0.41
0.39 0.47 0.58 0.71 0.65 0.66 0.88 0.93 0.95 0.99 0.97 0.92 0.87 0.81 0.79 0.80 0.73 0.49 0.31 0.41 0.58 0.77 0.81 0.75 0.65 0.49 0.35 0.28 0.25 0.23 0.20 0.19 0.22 0.27 0.31 0.32 0.34 0.38 0.43 0.39 0.37 0.37 0.39
0.50 0.56 0.63 0.70 0.80 0.92 1.00 1.02 1.05 1.08 1.09 1.02 0.97 0.92 0.88 0.90 0.86 0.56 0.39 0.46 0.57 0.74 0.92 0.93 0.74 0.58 0.48 0.36 0.32 0.30 0.25 0.21 0.24 0.27 0.28 0.30 0.29 0.31 0.36 0.39 0.39 0.35 0.33
0.58 0.59 0.63 0.74 0.83 0.94 1.11 1.18 1.18 1.13 1.12 1.09 1.02 0.97 0.97 1.02 1.04 0.80 0.57 0.57 0.66 0.74 0.86 0.91 0.79 0.66 0.58 0.47 0.40 0.36 0.31 0.28 0.30 0.29 0.30 0.32 0.32 0.33 0.34 0.33 0.32 0.31 0.28
0.67 0.66 0.66 0.74 0.88 0.97 1.08 1.17 1.18 1.21 1.05 0.99 0.94 0.90 0.92 1.01 1.02 0.83 0.74 0.77 0.89 0.93 0.91 0.94 0.91 0.76 0.65 0.56 0.49 0.47 0.44 0.41 0.38 0.36 0.36 0.38 0.37 0.35 0.35 0.29 0.26 0.24 0.21
0.82 0.74 0.70 0.75 0.88 0.99 1.09 1.09 0.92 0.87 0.70 0.63 0.63 0.60 0.64 0.69 0.79 0.68 0.60 0.70 0.86 0.92 0.89 0.91 0.92 0.85 0.72 0.63 0.57 0.57 0.54 0.50 0.44 0.43 0.41 0.40 0.38 0.34 0.33 0.29 0.23 0.22 0.20
0.95 0.85 0.78 0.77 0.85 0.93 1.03 1.16 1.19 0.97 0.74 0.58 0.50 0.43 0.45 0.52 0.61 0.61 0.58 0.63 0.73 0.78 0.79 0.81 0.83 0.80 0.72 0.67 0.61 0.60 0.55 0.53 0.50 0.47 0.45 0.44 0.40 0.33 0.30 0.29 0.23 0.20 0.20
1.01 0.90 0.82 0.83 0.86 0.89 0.95 1.07 1.23 1.23 1.00 0.70 0.55 0.45 0.40 0.42 0.46 0.51 0.54 0.60 0.67 0.70 0.70 0.73 0.74 0.72 0.67 0.65 0.64 0.63 0.60 0.55 0.51 0.51 0.48 0.45 0.40 0.32 0.28 0.28 0.23 0.18 0.18
0.97 0.90 0.82 0.84 0.87 0.85 0.90 0.98 1.06 1.12 1.04 0.90 0.73 0.55 0.43 0.39 0.42 0.47 0.49 0.56 0.67 0.66 0.63 0.65 0.64 0.62 0.60 0.60 0.61 0.64 0.61 0.51 0.48 0.49 0.46 0.40 0.36 0.30 0.26 0.24 0.22 0.21 0.20
0.93 0.75 0.68 0.73 0.79 0.82 0.87 0.92 0.94 1.00 1.00 0.94 0.80 0.57 0.41 0.39 0.44 0.46 0.48 0.58 0.65 0.62 0.57 0.56 0.52 0.50 0.51 0.52 0.56 0.59 0.55 0.49 0.47 0.44 0.42 0.35 0.30 0.27 0.23 0.22 0.19 0.18 0.17
0.91 0.76 0.58 0.58 0.67 0.74 0.82 0.87 0.87 0.86 0.89 0.85 0.70 0.47 0.31 0.30 0.38 0.43 0.49 0.54 0.54 0.52 0.47 0.43 0.38 0.39 0.40 0.41 0.42 0.45 0.46 0.45 0.41 0.38 0.37 0.32 0.26 0.25 0.23 0.23 0.21 0.17 0.17
0.90 0.82 0.66 0.57 0.59 0.64 0.72 0.80 0.78 0.72 0.70 0.69 0.59 0.41 0.28 0.25 0.33 0.39 0.43 0.42 0.40 0.40 0.36 0.31 0.29 0.30 0.30 0.31 0.31 0.34 0.38 0.38 0.36 0.35 0.33 0.29 0.26 0.24 0.24 0.25 0.24 0.21 0.20
0.87 0.78 0.67 0.60 0.60 0.58 0.62 0.69 0.65 0.60 0.56 0.52 0.45 0.36 0.27 0.27 0.31 0.36 0.36 0.34 0.34 0.31 0.28 0.25 0.23 0.23 0.26 0.27 0.26 0.27 0.28 0.28 0.29 0.29 0.28 0.26 0.25 0.25 0.25 0.25 0.23 0.20 0.19
0.79 0.74 0.63 0.58 0.59 0.61 0.59 0.58 0.52 0.48 0.43 0.37 0.32 0.28 0.26 0.29 0.31 0.31 0.30 0.27 0.25 0.21 0.18 0.17 0.17 0.20 0.22 0.22 0.22 0.23 0.22 0.22 0.23 0.24 0.24 0.22 0.21 0.21 0.22 0.23 0.22 0.19 0.17
0.76 0.76 0.65 0.55 0.53 0.54 0.50 0.46 0.43 0.40 0.33 0.27 0.25 0.25 0.26 0.27 0.26 0.25 0.23 0.19 0.15 0.14 0.14 0.14 0.16 0.17 0.16 0.17 0.18 0.18 0.19 0.21 0.22 0.21 0.21 0.20 0.18 0.17 0.18 0.19 0.20 0.18 0.14
0.69 0.70 0.61 0.52 0.46 0.42 0.38 0.38 0.38 0.32 0.25 0.20 0.19 0.20 0.20 0.17 0.15 0.15 0.13 0.10 0.09 0.09 0.09 0.10 0.11 0.12 0.14 0.14 0.15 0.15 0.16 0.18 0.18 0.18 0.17 0.16 0.15 0.14 0.14 0.14 0.15 0.14 0.11